K0VXP-1 Weather Reports


Display with metric or nautical units.
time (UTC)temp
F
wind
direction
speed
MPH
gust
MPH
rain 1hr
in
rain 24hr
in
rain mn
in
humidity
%
barometer
mb
20260906221536 78 321 8.0 13.0 0.00 0.00 0.00 30 1023.7
20260906220040 79 249 4.0 11.0 0.00 0.00 0.00 28 1024.0
20260906214541 79 190 7.0 12.0 0.00 0.00 0.00 28 1024.1
20260906213033 80 248 7.0 16.0 0.00 0.00 0.00 27 1024.2
20260906211538 80 224 8.0 16.0 0.00 0.00 0.00 27 1024.3
20260906210038 81 250 6.0 18.0 0.00 0.00 0.00 26 1024.5
20260906204534 80 255 10.0 21.0 0.00 0.00 0.00 26 1024.7
20260906203036 80 253 10.0 15.0 0.00 0.00 0.00 26 1024.7
20260906201553 80 207 8.0 14.0 0.00 0.00 0.00 26 1025.1
20260906200034 81 265 4.0 14.0 0.00 0.00 0.00 26 1025.2
20260906194540 83 281 6.0 15.0 0.00 0.00 0.00 24 1025.4
20260906193034 82 252 5.0 12.0 0.00 0.00 0.00 24 1025.7
20260906191534 82 241 2.0 11.0 0.00 0.00 0.00 24 1025.7
20260906190036 82 306 2.0 14.0 0.00 0.00 0.00 23 1025.9
20260906184543 80 38 3.0 8.0 0.00 0.00 0.00 24 1026.1
20260906183036 80 215 4.0 12.0 0.00 0.00 0.00 25 1026.4
20260906181553 80 225 6.0 11.0 0.00 0.00 0.00 26 1026.6
20260906180035 78 196 5.0 10.0 0.00 0.00 0.00 27 1027.0
20260906174539 79 146 3.0 8.0 0.00 0.00 0.00 26 1027.4
20260906173034 78 238 5.0 9.0 0.00 0.00 0.00 28 1027.7
20260906171536 78 0 2.0 7.0 0.00 0.00 0.00 27 1027.8
20260906170034 76 230 1.0 6.0 0.00 0.00 0.00 32 1028.0
20260906164534 74 316 0.0 5.0 0.00 0.00 0.00 32 1027.9
20260906163048 72 300 1.0 5.0 0.00 0.00 0.00 37 1028.0
20260906161536 69 252 2.0 5.0 0.00 0.00 0.00 42 1028.2
20260906160039 69 237 2.0 6.0 0.00 0.00 0.00 43 1028.2
20260906154533 67 0 1.0 4.0 0.00 0.00 0.00 43 1028.1
20260906153034 65 248 2.0 7.0 0.00 0.00 0.00 47 1028.2
20260906151538 64 229 2.0 6.0 0.00 0.00 0.00 46 1028.4
20260906150037 64 257 1.0 4.0 0.00 0.00 0.00 46 1028.5
20260906144536 62 223 3.0 6.0 0.00 0.00 0.00 49 1028.5
20260906143045 60 69 0.0 2.0 0.00 0.00 0.00 51 1028.3
20260906141536 55 69 2.0 4.0 0.00 0.00 0.00 60 1028.3
20260906140043 53 67 1.0 6.0 0.00 0.00 0.00 61 1028.5
20260906134538 53 59 4.0 6.0 0.00 0.00 0.00 62 1028.5
20260906133038 53 68 4.0 5.0 0.00 0.00 0.00 62 1028.3
20260906131535 52 37 2.0 4.0 0.00 0.00 0.00 61 1028.1
20260906130035 53 0 0.0 3.0 0.00 0.00 0.00 60 1028.0
20260906124539 53 0 0.0 1.0 0.00 0.00 0.00 59 1028.0
20260906123038 53 71 1.0 4.0 0.00 0.00 0.00 59 1027.8
20260906121536 53 71 1.0 5.0 0.00 0.00 0.00 60 1027.8
20260906120036 53 66 4.0 6.0 0.00 0.00 0.00 60 1027.7
20260906114544 53 77 3.0 4.0 0.00 0.00 0.00 59 1027.7
20260906113035 53 0 0.0 1.0 0.00 0.00 0.00 58 1028.0
20260906111538 54 198 2.0 5.0 0.00 0.00 0.00 57 1028.0
20260906110037 55 175 1.0 3.0 0.00 0.00 0.00 56 1027.7
20260906104537 55 55 3.0 5.0 0.00 0.00 0.00 56 1027.5
20260906103034 55 67 3.0 5.0 0.00 0.00 0.00 56 1027.7
20260906101537 55 76 4.0 7.0 0.00 0.00 0.00 56 1027.7
20260906100037 55 0 0.0 3.0 0.00 0.00 0.00 57 1028.0
20260906094541 54 87 3.0 5.0 0.00 0.00 0.00 56 1027.7
20260906093034 55 74 3.0 4.0 0.00 0.00 0.00 55 1027.5
20260906091540 55 68 2.0 4.0 0.00 0.00 0.00 54 1027.4
20260906090037 55 71 2.0 4.0 0.00 0.00 0.00 53 1027.0
20260906084538 56 67 2.0 4.0 0.00 0.00 0.00 53 1027.1
20260906083035 55 50 3.0 8.0 0.00 0.00 0.00 53 1027.2
20260906081541 56 81 4.0 7.0 0.00 0.00 0.00 52 1027.0
20260906080037 57 69 3.0 6.0 0.00 0.00 0.00 51 1027.2
20260906074534 57 66 4.0 7.0 0.00 0.00 0.00 51 1027.0
20260906073041 58 87 4.0 6.0 0.00 0.00 0.00 49 1027.0
20260906071536 59 73 3.0 8.0 0.00 0.00 0.00 49 1027.1
20260906070037 59 78 3.0 6.0 0.00 0.00 0.00 48 1027.1
20260906064537 59 71 1.0 3.0 0.00 0.00 0.00 47 1027.1
20260906063037 60 75 3.0 5.0 0.00 0.00 0.00 48 1027.2
20260906061538 60 74 4.0 7.0 0.00 0.00 0.00 48 1027.0
20260906060049 60 61 2.0 5.0 0.00 0.00 0.00 48 1027.0
20260906054534 60 66 3.0 6.0 0.00 0.00 0.00 48 1027.0
20260906053038 59 94 5.0 9.0 0.00 0.00 0.00 48 1026.9
20260906051536 60 54 6.0 9.0 0.00 0.00 0.00 49 1026.9
20260906050038 60 73 5.0 9.0 0.00 0.00 0.00 49 1026.9
20260906044535 60 55 5.0 10.0 0.00 0.00 0.00 49 1027.0
20260906043040 60 86 6.0 10.0 0.00 0.00 0.00 49 1027.1
20260906041537 60 71 6.0 9.0 0.00 0.00 0.00 49 1027.0
20260906040040 61 63 6.0 10.0 0.00 0.00 0.00 48 1026.9
20260906034536 62 73 4.0 9.0 0.00 0.00 0.00 47 1026.9
20260906033037 63 71 5.0 8.0 0.00 0.00 0.00 46 1026.7
20260906031603 63 75 4.0 8.0 0.00 0.00 0.00 46 1026.7
20260906030037 65 80 4.0 8.0 0.00 0.00 0.00 44 1026.3
20260906024542 66 74 4.0 9.0 0.00 0.00 0.00 43 1026.2
20260906023048 67 57 2.0 5.0 0.00 0.00 0.00 41 1026.0
20260906021536 68 43 2.0 5.0 0.00 0.00 0.00 39 1025.6
20260906020045 69 19 2.0 4.0 0.00 0.00 0.00 37 1025.5
20260906014539 71 331 2.0 5.0 0.00 0.00 0.00 35 1025.2
20260906013039 74 305 2.0 8.0 0.00 0.00 0.00 33 1025.2
20260906011538 76 276 4.0 9.0 0.00 0.00 0.00 31 1025.3
20260906010038 78 266 5.0 10.0 0.00 0.00 0.00 30 1025.3
20260906004546 78 269 6.0 11.0 0.00 0.00 0.00 30 1025.3
20260906003034 78 231 7.0 13.0 0.00 0.00 0.00 30 1025.2
20260906001544 78 254 8.0 16.0 0.00 0.00 0.00 30 1025.2
20260906000035 78 291 8.0 13.0 0.00 0.00 0.00 30 1025.1
20260905234536 79 294 8.0 19.0 0.00 0.00 0.00 29 1025.2
20260905233043 80 300 6.0 14.0 0.00 0.00 0.00 28 1025.1
20260905231537 81 311 6.0 14.0 0.00 0.00 0.00 28 1025.0
20260905230036 80 263 11.0 18.0 0.00 0.00 0.00 27 1025.0
20260905224534 80 269 10.0 18.0 0.00 0.00 0.00 28 1025.0
20260905223039 81 223 9.0 17.0 0.00 0.00 0.00 26 1024.9